Regional Weather Roundup
Issued by NWS

Home | Current Version | Previous Version | Text Only | Print | Product List | Glossary Off
Versions: 1 2 3 4 5 6 7 8 9 10 11 12 13 14 15 16 17 18 19 20 21 22 23 24 25 26 27 28

000
ASUS45 KCYS 022310
RWRWY

WYOMING REGIONAL WEATHER ROUNDUP
NATIONAL WEATHER SERVICE CHEYENNE WY
500 PM MDT MON MAY 02 2016

NOTE:  "FAIR" INDICATES FEW OR NO CLOUDS BELOW 12,000 FEET
WITH NO SIGNIFICANT WEATHER AND/OR OBSTRUCTIONS TO VISIBILITY.

WYZ001-030000-
YELLOWSTONE NATIONAL PARK

CITY           SKY/WX    TMP DP  RH WIND       PRES   REMARKS
LK YELLOWSTONE   N/A     53  11  18 VRB5      30.26F
W YELLOWSTONE  NOT AVBL

$$
WYZ002>013-054>058-071-098>099-030000-
NORTHERN WYOMING

CITY           SKY/WX    TMP DP  RH WIND       PRES   REMARKS
JACKSON        SUNNY     63  16  16 CALM      30.18F
CODY           FAIR      63  30  29 N10G17    30.14F
GREYBULL       FAIR      70  20  15 NW14G21   30.08F
WORLAND        FAIR      65  25  22 NE7       30.11F
SHERIDAN       FAIR      65  28  24 NW15G23   30.11S
BUFFALO          N/A    N/A N/A N/A MISG      30.13S
GILLETTE       PTSUNNY   60  34  37 N17G26    30.09F
HULETT         MOCLDY    63  32  31 N15G24    30.08F
NEWCASTLE      FAIR      61  27  27 N18G26    30.06F

$$
WYZ014>020-022>026-101>103-030000-
CENTRAL WYOMING

CITY           SKY/WX    TMP DP  RH WIND       PRES   REMARKS
BIG PINEY      FAIR      59   1   9 MISG      30.21F
PINEDALE       FAIR      59  10  14 CALM      30.21S
DUBOIS         FAIR      59   7  12 SE10G17   30.18S
LANDER         FAIR      61  27  27 CALM      30.14F
RIVERTON       FAIR      60  25  26 CALM      30.16F
CASPER         FAIR      60  27  28 W15G23    30.13F
DOUGLAS        FAIR      62  28  27 N21G29    30.10F

$$
WYZ021-027>030-104>119-030000-
SOUTHERN WYOMING

CITY           SKY/WX    TMP DP  RH WIND       PRES   REMARKS
EVANSTON       FAIR      57  18  21 CALM      30.22F
KEMMERER         N/A     57  10  15 SW5       30.23F
FORT BRIDGER   CLEAR     57  21  24 E3        30.25F
ROCK SPRINGS   FAIR      54  17  23 VRB5      30.22F
DIXON          FAIR      58  24  26 S5        30.21F
RAWLINS        FAIR      57  12  17 NW12G20   30.19S
SARATOGA       FAIR      55  18  22 NW16G22   30.19F
LARAMIE        FAIR      48  26  42 NW15G22   30.16F
CHEYENNE       FAIR      54  21  27 N21G30    30.12F
TORRINGTON     FAIR      62  30  29 NW17G24   30.03F
PINE BLUFFS    FAIR      57  23  26 NW14G22   30.11F

$$




USA.gov is the U.S. government's official web portal to all federal, state and local government web resources and services.